This is the latest recevied weather packets stored in our database for station/object KR4KUV. If no packets are shown the sender has not sent any weather packets the latest 10 day(s).
| Time | Temp. | Humidity | Pressure | Rain* | Wind** | Luminosity | Snow |
|---|---|---|---|---|---|---|---|
| 1787665428 | 21.11° C | 79% | 1021.9 hPa | 0 mm | - | 165 W/m² | - |
| 1787665127 | 20.56° C | 77% | 1021.9 hPa | 0 mm | - | 155 W/m² | - |
| 1787664825 | 20.56° C | 76% | 1021.7 hPa | 0 mm | - | 160 W/m² | - |
| 1787664524 | 20.56° C | 78% | 1021.7 hPa | 0 mm | - | 176 W/m² | - |
| 1787664219 | 21.11° C | 78% | 1021.8 hPa | 0 mm | - | 159 W/m² | - |
| 1787663918 | 20.56° C | 81% | 1021.6 hPa | 0 mm | - | 170 W/m² | - |
| 1787663614 | 20° C | 84% | 1021.6 hPa | 0 mm | - | 149 W/m² | - |
| 1787663309 | 20° C | 82% | 1021.5 hPa | 0 mm | - | 115 W/m² | - |
| 1787663006 | 19.44° C | 85% | 1021.6 hPa | 0 mm | - | 95 W/m² | - |
| 1787662701 | 19.44° C | 85% | 1021.7 hPa | 0 mm | - | 92 W/m² | - |
| 1787662401 | 18.89° C | 86% | 1021.6 hPa | 0 mm | - | 88 W/m² | - |
| 1787662096 | 18.89° C | 88% | 1021.4 hPa | 0 mm | - | 87 W/m² | - |
| 1787661792 | 18.33° C | 90% | 1021.3 hPa | 0 mm | - | 81 W/m² | - |
| 1787661492 | 18.33° C | 94% | 1021.6 hPa | 0 mm | - | 80 W/m² | - |
| 1787661190 | 17.78° C | 95% | 1021.4 hPa | 0 mm | - | 78 W/m² | - |
| 1787660889 | 17.78° C | 95% | 1021.3 hPa | 0 mm | - | 74 W/m² | - |
| 1787660584 | 17.78° C | 96% | 1021.2 hPa | 0 mm | - | 69 W/m² | - |
| 1787660279 | 17.22° C | 96% | 1021.3 hPa | 0 mm | - | 65 W/m² | - |
| 1787659974 | 17.22° C | 97% | 1021.1 hPa | 0 mm | - | 61 W/m² | - |
| 1787659671 | 17.22° C | 98% | 1021.2 hPa | 0 mm | - | 58 W/m² | - |
| 1787659367 | 16.67° C | 99% | 1021 hPa | 0 mm | - | 51 W/m² | - |
| 1787659066 | 16.67° C | 99% | 1020.7 hPa | 0 mm | - | 43 W/m² | - |
| 1787658762 | 16.67° C | 99% | 1020.9 hPa | 0 mm | - | 38 W/m² | - |
| 1787658461 | 16.67° C | 99% | 1021 hPa | 0 mm | - | 36 W/m² | - |
| 1787658157 | 16.11° C | 99% | 1020.8 hPa | 0 mm | - | 28 W/m² | - |
* Rain latest hour (hover to see other rain measurements)
** Current wind speed in m/s (hover to see current wind gust speed)